DCCHB EDHL-EDLA

Flight info

Callsign DCCHB
Flight time 0h 38m
Altitude 43000
Route HAM2A HAM L23 STADE Y348 MAWEQ DCT EXOBA VFR DCT
Aircraft LJ35/M-SGHRWXY/SB1

Departure

Time 2026-05-06 17:42
Airport Lübeck Blankensee Airport (EDHL)

Arrival

Time 2026-05-06 18:21
Airport Arnsberg-Menden Airfield (EDLA)
Time Latitude Longitude Altitude Speed Heading
2026-05-06 17:24 53.80464 10.70288 56 ft 0 kts 342°
2026-05-06 17:38 53.80466 10.70286 52 ft 3 kts 326°
2026-05-06 17:39 53.80469 10.70279 53 ft 0 kts 276°
2026-05-06 17:39 53.80460 10.70270 50 ft 5 kts 161°
2026-05-06 17:39 53.80417 10.70279 55 ft 8 kts 224°
2026-05-06 17:39 53.80396 10.70178 54 ft 9 kts 252°
2026-05-06 17:40 53.80377 10.70121 55 ft 3 kts 204°
2026-05-06 17:40 53.80359 10.70120 55 ft 2 kts 171°
2026-05-06 17:40 53.80355 10.70121 55 ft 0 kts 171°
2026-05-06 17:41 53.80353 10.70122 55 ft 2 kts 171°
2026-05-06 17:41 53.80309 10.70136 53 ft 10 kts 168°
2026-05-06 17:42 53.80228 10.70165 53 ft 10 kts 154°
2026-05-06 17:42 53.80243 10.70403 54 ft 57 kts 72°
2026-05-06 17:42 53.80466 10.71589 100 ft 147 kts 69°
2026-05-06 17:42 53.80823 10.73447 730 ft 177 kts 72°
2026-05-06 17:43 53.81217 10.75492 1507 ft 187 kts 71°
2026-05-06 17:43 53.81616 10.77573 2070 ft 184 kts 72°
2026-05-06 17:43 53.82010 10.79642 2634 ft 196 kts 71°
2026-05-06 17:43 53.82471 10.82039 3775 ft 221 kts 71°
2026-05-06 17:44 53.82942 10.84493 5108 ft 222 kts 71°
2026-05-06 17:44 53.83374 10.87055 6201 ft 230 kts 81°
2026-05-06 17:44 53.83157 10.89741 7281 ft 238 kts 112°
2026-05-06 17:44 53.82092 10.91919 8219 ft 248 kts 142°
2026-05-06 17:45 53.80462 10.92972 8984 ft 258 kts 172°
2026-05-06 17:45 53.78683 10.92591 9423 ft 265 kts 200°
2026-05-06 17:45 53.77183 10.90791 9786 ft 267 kts 227°
2026-05-06 17:45 53.76032 10.88278 9885 ft 274 kts 238°
2026-05-06 17:46 53.75213 10.85091 10134 ft 320 kts 254°
2026-05-06 17:46 53.74849 10.81220 10834 ft 353 kts 264°
2026-05-06 17:46 53.74606 10.76978 11828 ft 373 kts 263°
2026-05-06 17:46 53.74204 10.72687 13458 ft 370 kts 257°
2026-05-06 17:47 53.73677 10.68383 14688 ft 377 kts 257°
2026-05-06 17:47 53.73184 10.64008 15959 ft 382 kts 259°
2026-05-06 17:47 53.72749 10.59548 17188 ft 388 kts 259°
2026-05-06 17:47 53.72291 10.55035 18344 ft 392 kts 258°
2026-05-06 17:48 53.71283 10.45821 20127 ft 406 kts 258°
2026-05-06 17:48 53.70951 10.42692 20690 ft 410 kts 259°
2026-05-06 17:48 53.70449 10.37925 21507 ft 416 kts 259°
2026-05-06 17:49 53.69756 10.31518 22779 ft 417 kts 258°
2026-05-06 17:49 53.69402 10.28273 23532 ft 416 kts 259°
2026-05-06 17:49 53.68697 10.21928 24724 ft 414 kts 257°
2026-05-06 17:49 53.68137 10.18800 25321 ft 413 kts 248°
2026-05-06 17:50 53.67032 10.14347 26210 ft 410 kts 246°
2026-05-06 17:50 53.65932 10.09913 27065 ft 410 kts 246°
2026-05-06 17:50 53.64857 10.05532 27928 ft 408 kts 246°
2026-05-06 17:50 53.63765 10.01127 28763 ft 406 kts 246°
2026-05-06 17:51 53.62669 9.96750 29536 ft 405 kts 246°
2026-05-06 17:51 53.61578 9.92392 30211 ft 404 kts 246°
2026-05-06 17:51 53.60490 9.88031 30912 ft 402 kts 246°
2026-05-06 17:51 53.59412 9.83710 31630 ft 399 kts 246°
2026-05-06 17:52 53.58192 9.79548 32295 ft 396 kts 235°
2026-05-06 17:52 53.56292 9.76215 32957 ft 394 kts 217°
2026-05-06 17:52 53.53956 9.73830 33624 ft 393 kts 209°
2026-05-06 17:52 53.51531 9.71751 34205 ft 391 kts 207°
2026-05-06 17:53 53.49128 9.69623 34693 ft 389 kts 211°
2026-05-06 17:53 53.46803 9.67293 35170 ft 388 kts 212°
2026-05-06 17:53 53.44485 9.64963 35642 ft 388 kts 211°
2026-05-06 17:53 53.42132 9.62742 36111 ft 387 kts 210°
2026-05-06 17:54 53.39784 9.60554 36566 ft 386 kts 211°
2026-05-06 17:54 53.37452 9.58320 37013 ft 386 kts 211°
2026-05-06 17:54 53.35134 9.56075 37475 ft 385 kts 211°
2026-05-06 17:54 53.32812 9.53857 37915 ft 384 kts 211°
2026-05-06 17:55 53.30478 9.51654 38335 ft 384 kts 211°
2026-05-06 17:55 53.28161 9.49455 38709 ft 383 kts 211°
2026-05-06 17:55 53.25841 9.47243 39007 ft 384 kts 211°
2026-05-06 17:55 53.23522 9.45040 39297 ft 384 kts 211°
2026-05-06 17:56 53.21224 9.42868 39593 ft 384 kts 211°
2026-05-06 17:56 53.18869 9.40642 39884 ft 385 kts 211°
2026-05-06 17:56 53.16567 9.38464 40167 ft 385 kts 211°
2026-05-06 17:56 53.14233 9.36261 40435 ft 386 kts 211°
2026-05-06 17:57 53.11898 9.34061 40717 ft 386 kts 211°
2026-05-06 17:57 53.09555 9.31856 40997 ft 386 kts 211°
2026-05-06 17:57 53.07214 9.29655 41259 ft 387 kts 211°
2026-05-06 17:57 53.04872 9.27455 41515 ft 387 kts 211°
2026-05-06 17:58 53.02524 9.25254 41779 ft 387 kts 211°
2026-05-06 17:58 53.00171 9.23050 42036 ft 388 kts 211°
2026-05-06 17:58 52.97818 9.20849 42281 ft 388 kts 211°
2026-05-06 17:58 52.95460 9.18651 42532 ft 389 kts 210°
2026-05-06 17:59 52.93034 9.16679 42772 ft 390 kts 206°
2026-05-06 17:59 52.90533 9.14869 42871 ft 395 kts 205°
2026-05-06 17:59 52.85428 9.11127 42875 ft 406 kts 206°
2026-05-06 18:00 52.82849 9.09182 42357 ft 412 kts 206°
2026-05-06 18:00 52.80185 9.07213 41453 ft 428 kts 205°
2026-05-06 18:00 52.77416 9.05186 40489 ft 439 kts 205°
2026-05-06 18:00 52.74631 9.03136 39577 ft 437 kts 205°
2026-05-06 18:01 52.71873 9.01096 38685 ft 434 kts 205°
2026-05-06 18:01 52.69125 8.99071 37626 ft 430 kts 205°
2026-05-06 18:01 52.66396 8.97070 36571 ft 427 kts 205°
2026-05-06 18:01 52.63695 8.95091 35564 ft 424 kts 205°
2026-05-06 18:02 52.61004 8.93117 34592 ft 421 kts 205°
2026-05-06 18:02 52.58333 8.91161 33609 ft 419 kts 205°
2026-05-06 18:02 52.55677 8.89222 32507 ft 416 kts 205°
2026-05-06 18:02 52.53035 8.87295 31440 ft 415 kts 205°
2026-05-06 18:03 52.50399 8.85373 30415 ft 414 kts 205°
2026-05-06 18:03 52.47521 8.83278 29207 ft 412 kts 205°
2026-05-06 18:03 52.45157 8.81561 28192 ft 410 kts 205°
2026-05-06 18:03 52.42585 8.79695 27110 ft 408 kts 205°
2026-05-06 18:04 52.39999 8.77819 26060 ft 406 kts 205°
2026-05-06 18:04 52.37429 8.75956 25040 ft 402 kts 205°
2026-05-06 18:04 52.34881 8.74115 24067 ft 399 kts 205°
2026-05-06 18:04 52.32358 8.72294 23062 ft 395 kts 205°
2026-05-06 18:05 52.29852 8.70485 21958 ft 391 kts 205°
2026-05-06 18:05 52.27370 8.68697 20893 ft 388 kts 205°
2026-05-06 18:05 52.24910 8.66927 19837 ft 385 kts 205°
2026-05-06 18:05 52.22466 8.65171 18827 ft 382 kts 205°
2026-05-06 18:06 52.20043 8.63431 17796 ft 377 kts 205°
2026-05-06 18:06 52.17665 8.61727 16691 ft 369 kts 205°
2026-05-06 18:06 52.15333 8.60056 15624 ft 362 kts 205°
2026-05-06 18:06 52.13047 8.58422 14591 ft 356 kts 205°
2026-05-06 18:07 52.10798 8.56813 13586 ft 351 kts 205°
2026-05-06 18:07 52.08552 8.55210 12496 ft 351 kts 205°
2026-05-06 18:07 52.06313 8.53614 11550 ft 350 kts 205°
2026-05-06 18:07 52.04093 8.52033 10635 ft 347 kts 205°
2026-05-06 18:08 52.01915 8.50486 9738 ft 336 kts 205°
2026-05-06 18:08 51.99805 8.48985 8763 ft 327 kts 204°
2026-05-06 18:08 51.97747 8.47522 7814 ft 320 kts 204°
2026-05-06 18:08 51.95722 8.46087 6892 ft 315 kts 204°
2026-05-06 18:09 51.93732 8.44677 6027 ft 309 kts 204°
2026-05-06 18:09 51.91771 8.43288 5147 ft 305 kts 204°
2026-05-06 18:09 51.89836 8.41916 4283 ft 303 kts 204°
2026-05-06 18:09 51.87912 8.40501 3462 ft 302 kts 205°
2026-05-06 18:10 51.86193 8.38639 2865 ft 290 kts 220°
2026-05-06 18:10 51.84747 8.36516 2634 ft 274 kts 223°
2026-05-06 18:10 51.83375 8.34429 2375 ft 268 kts 223°
2026-05-06 18:10 51.82108 8.32265 2101 ft 263 kts 230°
2026-05-06 18:11 51.80877 8.29869 1983 ft 264 kts 231°
2026-05-06 18:11 51.79783 8.27706 1989 ft 267 kts 232°
2026-05-06 18:11 51.78545 8.25458 1990 ft 267 kts 227°
2026-05-06 18:11 51.77259 8.23355 1989 ft 260 kts 225°
2026-05-06 18:12 51.75923 8.21428 1982 ft 255 kts 220°
2026-05-06 18:12 51.74562 8.19620 1980 ft 252 kts 219°
2026-05-06 18:12 51.73197 8.17827 1985 ft 248 kts 220°
2026-05-06 18:12 51.71860 8.16089 1994 ft 246 kts 220°
2026-05-06 18:13 51.70612 8.14478 1989 ft 244 kts 219°
2026-05-06 18:13 51.69288 8.12774 1955 ft 236 kts 219°
2026-05-06 18:13 51.68019 8.11139 1812 ft 231 kts 219°
2026-05-06 18:13 51.66791 8.09562 1699 ft 226 kts 219°
2026-05-06 18:14 51.65586 8.08034 1688 ft 216 kts 219°
2026-05-06 18:14 51.64440 8.06564 1693 ft 206 kts 222°
2026-05-06 18:14 51.63382 8.05072 1695 ft 198 kts 224°
2026-05-06 18:14 51.62362 8.03592 1697 ft 197 kts 223°
2026-05-06 18:15 51.61352 8.02118 1693 ft 195 kts 224°
2026-05-06 18:15 51.60348 8.00667 1696 ft 195 kts 223°
2026-05-06 18:15 51.59361 7.99150 1699 ft 197 kts 230°
2026-05-06 18:15 51.58480 7.97440 1701 ft 200 kts 233°
2026-05-06 18:16 51.57568 7.95730 1702 ft 202 kts 229°
2026-05-06 18:16 51.56603 7.94061 1710 ft 206 kts 228°
2026-05-06 18:16 51.55614 7.92361 1718 ft 208 kts 228°
2026-05-06 18:16 51.54639 7.90688 1718 ft 204 kts 229°
2026-05-06 18:17 51.53669 7.89035 1705 ft 203 kts 228°
2026-05-06 18:17 51.52730 7.87438 1712 ft 184 kts 229°
2026-05-06 18:17 51.51885 7.86018 1695 ft 172 kts 227°
2026-05-06 18:17 51.51069 7.84629 1687 ft 168 kts 228°
2026-05-06 18:18 51.50277 7.83297 1693 ft 163 kts 228°
2026-05-06 18:18 51.49514 7.82010 1694 ft 155 kts 227°
2026-05-06 18:18 51.48786 7.80763 1686 ft 153 kts 229°
2026-05-06 18:18 51.48020 7.79626 1502 ft 152 kts 208°
2026-05-06 18:19 51.47028 7.79598 1475 ft 144 kts 150°
2026-05-06 18:19 51.46242 7.80524 1460 ft 141 kts 140°
2026-05-06 18:19 51.45690 7.81788 1392 ft 140 kts 96°
2026-05-06 18:19 51.45675 7.83322 1405 ft 137 kts 83°
2026-05-06 18:20 51.45867 7.84831 1404 ft 135 kts 65°
2026-05-06 18:20 51.46386 7.86048 1335 ft 133 kts 47°
2026-05-06 18:20 51.47005 7.87235 1167 ft 145 kts 47°
2026-05-06 18:20 51.47660 7.88480 954 ft 143 kts 47°
2026-05-06 18:21 51.48291 7.89648 787 ft 128 kts 47°
2026-05-06 18:21 51.48560 7.90144 770 ft 15 kts 50°
2026-05-06 18:21 51.48623 7.90267 765 ft 12 kts 66°
2026-05-06 18:21 51.48573 7.90294 767 ft 11 kts 232°
2026-05-06 18:22 51.48532 7.90216 771 ft 7 kts 229°
2026-05-06 18:22 51.48500 7.90157 774 ft 9 kts 229°
2026-05-06 18:22 51.48447 7.90060 778 ft 14 kts 228°
2026-05-06 18:22 51.48389 7.89952 781 ft 12 kts 229°
2026-05-06 18:23 51.48348 7.89932 783 ft 8 kts 141°
2026-05-06 18:23 51.48293 7.89941 782 ft 9 kts 234°
2026-05-06 18:23 51.48249 7.89872 783 ft 4 kts 244°
2026-05-06 18:23 51.48249 7.89870 783 ft 0 kts 255°